ETD6011 OEDF-OMDB

Flight info

Callsign ETD6011
Flight time 1h 0m
Altitude 25000
Route ROTEL1E ROTEL N572 DAVRI P559 VUTEB VUTEB4D
Aircraft A20N/M-SDE2E3FGHIRWXY/LB1

Departure

Time 2026-04-23 10:17
Airport King Fahd International Airport (OEDF)

Arrival

Time 2026-04-23 11:17
Airport Dubai International Airport (OMDB)
Time Latitude Longitude Altitude Speed Heading
2026-04-23 09:55 26.46886 49.79497 89 ft 0 kts 75°
2026-04-23 09:55 26.46886 49.79496 89 ft 0 kts 75°
2026-04-23 10:03 26.46882 49.79482 89 ft 4 kts 72°
2026-04-23 10:03 26.46872 49.79454 88 ft 4 kts 61°
2026-04-23 10:03 26.46857 49.79430 87 ft 4 kts 36°
2026-04-23 10:04 26.46839 49.79422 86 ft 0 kts 347°
2026-04-23 10:11 26.46852 49.79418 86 ft 5 kts 345°
2026-04-23 10:11 26.46903 49.79395 86 ft 11 kts 334°
2026-04-23 10:11 26.46987 49.79350 86 ft 16 kts 334°
2026-04-23 10:12 26.47103 49.79285 88 ft 21 kts 333°
2026-04-23 10:12 26.47248 49.79207 86 ft 25 kts 335°
2026-04-23 10:12 26.47420 49.79133 86 ft 27 kts 346°
2026-04-23 10:12 26.47503 49.79036 85 ft 16 kts 245°
2026-04-23 10:13 26.47483 49.78968 86 ft 12 kts 255°
2026-04-23 10:13 26.47412 49.78911 86 ft 17 kts 171°
2026-04-23 10:13 26.47280 49.78950 88 ft 22 kts 165°
2026-04-23 10:13 26.47112 49.79001 89 ft 28 kts 161°
2026-04-23 10:14 26.46907 49.79066 86 ft 33 kts 165°
2026-04-23 10:14 26.46667 49.79139 88 ft 38 kts 165°
2026-04-23 10:14 26.46409 49.79219 88 ft 38 kts 164°
2026-04-23 10:14 26.46220 49.79278 86 ft 24 kts 163°
2026-04-23 10:15 26.46035 49.79336 85 ft 30 kts 165°
2026-04-23 10:15 26.45818 49.79402 85 ft 35 kts 165°
2026-04-23 10:15 26.45592 49.79472 89 ft 24 kts 164°
2026-04-23 10:15 26.45463 49.79450 85 ft 18 kts 235°
2026-04-23 10:16 26.45428 49.79320 89 ft 18 kts 256°
2026-04-23 10:16 26.45478 49.79185 85 ft 22 kts 327°
2026-04-23 10:16 26.45567 49.79154 85 ft 4 kts 344°
2026-04-23 10:16 26.45722 49.79105 87 ft 62 kts 344°
2026-04-23 10:17 26.46406 49.78889 90 ft 137 kts 344°
2026-04-23 10:17 26.47419 49.78589 681 ft 146 kts 351°
2026-04-23 10:17 26.48392 49.78379 1605 ft 143 kts 355°
2026-04-23 10:17 26.49353 49.78216 2411 ft 137 kts 350°
2026-04-23 10:18 26.50307 49.77914 2759 ft 152 kts 347°
2026-04-23 10:18 26.51399 49.77551 2988 ft 175 kts 346°
2026-04-23 10:18 26.52672 49.77388 3185 ft 199 kts 10°
2026-04-23 10:18 26.53913 49.78216 3455 ft 227 kts 50°
2026-04-23 10:19 26.54619 49.79910 3807 ft 255 kts 69°
2026-04-23 10:19 26.55122 49.81920 4386 ft 275 kts 74°
2026-04-23 10:19 26.55554 49.84021 5081 ft 287 kts 77°
2026-04-23 10:19 26.55992 49.86256 5869 ft 294 kts 77°
2026-04-23 10:20 26.56437 49.88481 6635 ft 301 kts 77°
2026-04-23 10:20 26.56928 49.90838 7419 ft 306 kts 77°
2026-04-23 10:20 26.57430 49.93166 8191 ft 310 kts 77°
2026-04-23 10:20 26.57969 49.95613 8908 ft 318 kts 77°
2026-04-23 10:21 26.58488 49.97948 9587 ft 325 kts 77°
2026-04-23 10:21 26.59042 50.00391 10274 ft 323 kts 77°
2026-04-23 10:21 26.59614 50.02851 10914 ft 329 kts 77°
2026-04-23 10:21 26.60198 50.05373 11567 ft 335 kts 77°
2026-04-23 10:22 26.60780 50.07931 12238 ft 340 kts 78°
2026-04-23 10:22 26.61356 50.10500 12916 ft 344 kts 78°
2026-04-23 10:22 26.61942 50.13137 13617 ft 348 kts 78°
2026-04-23 10:22 26.62525 50.15770 14252 ft 350 kts 78°
2026-04-23 10:23 26.63104 50.18418 14881 ft 352 kts 78°
2026-04-23 10:23 26.63684 50.21090 15478 ft 357 kts 78°
2026-04-23 10:23 26.64280 50.23878 15595 ft 379 kts 78°
2026-04-23 10:23 26.64909 50.26810 15727 ft 398 kts 77°
2026-04-23 10:24 26.65593 50.29883 15853 ft 416 kts 77°
2026-04-23 10:24 26.66326 50.33118 15981 ft 434 kts 77°
2026-04-23 10:24 26.67079 50.36427 16100 ft 450 kts 76°
2026-04-23 10:24 26.67921 50.39904 16249 ft 466 kts 75°
2026-04-23 10:25 26.68828 50.43367 16616 ft 473 kts 74°
2026-04-23 10:25 26.69793 50.46905 17087 ft 478 kts 73°
2026-04-23 10:25 26.70777 50.50473 17576 ft 481 kts 73°
2026-04-23 10:25 26.71757 50.54063 18053 ft 485 kts 73°
2026-04-23 10:26 26.72731 50.57691 18484 ft 489 kts 74°
2026-04-23 10:26 26.73696 50.61351 18924 ft 491 kts 74°
2026-04-23 10:26 26.74668 50.65082 19385 ft 493 kts 74°
2026-04-23 10:26 26.75626 50.68776 19897 ft 494 kts 74°
2026-04-23 10:27 26.76582 50.72463 20493 ft 493 kts 74°
2026-04-23 10:27 26.77545 50.76171 20600 ft 499 kts 73°
2026-04-23 10:27 26.78517 50.79898 20795 ft 497 kts 73°
2026-04-23 10:27 26.79485 50.83611 21409 ft 496 kts 73°
2026-04-23 10:28 26.80446 50.87305 22035 ft 494 kts 73°
2026-04-23 10:28 26.81199 50.91057 22671 ft 492 kts 83°
2026-04-23 10:28 26.81466 50.94863 23319 ft 490 kts 87°
2026-04-23 10:28 26.81727 50.98656 23904 ft 488 kts 86°
2026-04-23 10:29 26.81997 51.02442 24464 ft 487 kts 88°
2026-04-23 10:29 26.81784 51.06207 24801 ft 488 kts 106°
2026-04-23 10:29 26.80517 51.09703 24912 ft 484 kts 127°
2026-04-23 10:29 26.78409 51.12699 24941 ft 482 kts 135°
2026-04-23 10:30 26.76323 51.15638 24929 ft 482 kts 132°
2026-04-23 10:30 26.74942 51.17637 24932 ft 481 kts 132°
2026-04-23 10:30 26.72897 51.20601 24928 ft 481 kts 132°
2026-04-23 10:30 26.70807 51.23617 24926 ft 490 kts 133°
2026-04-23 10:31 26.68475 51.26429 24924 ft 495 kts 139°
2026-04-23 10:31 26.66343 51.29448 24912 ft 504 kts 122°
2026-04-23 10:31 26.65114 51.33179 24923 ft 521 kts 102°
2026-04-23 10:31 26.64983 51.37195 24909 ft 515 kts 83°
2026-04-23 10:32 26.65538 51.41134 24915 ft 515 kts 83°
2026-04-23 10:32 26.65684 51.45161 24912 ft 523 kts 96°
2026-04-23 10:32 26.64990 51.49141 24914 ft 522 kts 111°
2026-04-23 10:32 26.63664 51.52907 24915 ft 521 kts 115°
2026-04-23 10:33 26.62314 51.56662 24909 ft 521 kts 114°
2026-04-23 10:33 26.61023 51.60456 24909 ft 522 kts 113°
2026-04-23 10:33 26.59789 51.64268 24907 ft 522 kts 112°
2026-04-23 10:33 26.58588 51.68099 24911 ft 522 kts 112°
2026-04-23 10:34 26.57396 51.71926 24910 ft 522 kts 112°
2026-04-23 10:34 26.56196 51.75751 24906 ft 522 kts 112°
2026-04-23 10:34 26.54979 51.79569 24904 ft 521 kts 112°
2026-04-23 10:34 26.53748 51.83380 24901 ft 521 kts 112°
2026-04-23 10:35 26.52512 51.87179 24898 ft 521 kts 113°
2026-04-23 10:35 26.51262 51.90980 24895 ft 521 kts 113°
2026-04-23 10:35 26.50007 51.94778 24891 ft 521 kts 113°
2026-04-23 10:35 26.48773 51.98546 24901 ft 515 kts 113°
2026-04-23 10:36 26.47546 52.02293 24898 ft 515 kts 113°
2026-04-23 10:36 26.46314 52.06052 24898 ft 516 kts 113°
2026-04-23 10:36 26.45077 52.09810 24892 ft 516 kts 113°
2026-04-23 10:36 26.43834 52.13544 24888 ft 508 kts 113°
2026-04-23 10:37 26.42585 52.17250 24896 ft 516 kts 114°
2026-04-23 10:37 26.41301 52.21023 24892 ft 519 kts 114°
2026-04-23 10:37 26.40018 52.24780 24892 ft 521 kts 114°
2026-04-23 10:37 26.38733 52.28545 24887 ft 521 kts 114°
2026-04-23 10:38 26.37443 52.32330 24885 ft 521 kts 114°
2026-04-23 10:38 26.36153 52.36115 24886 ft 522 kts 114°
2026-04-23 10:38 26.34856 52.39892 24886 ft 521 kts 114°
2026-04-23 10:38 26.33497 52.43637 24884 ft 521 kts 116°
2026-04-23 10:39 26.32078 52.47350 24880 ft 520 kts 116°
2026-04-23 10:39 26.30631 52.51032 24869 ft 512 kts 117°
2026-04-23 10:39 26.29207 52.54625 24880 ft 504 kts 117°
2026-04-23 10:39 26.27782 52.58232 24877 ft 501 kts 117°
2026-04-23 10:40 26.26410 52.61742 24877 ft 500 kts 116°
2026-04-23 10:40 26.25033 52.65295 24878 ft 500 kts 116°
2026-04-23 10:40 26.23662 52.68857 24874 ft 500 kts 116°
2026-04-23 10:40 26.22302 52.72418 24873 ft 500 kts 116°
2026-04-23 10:41 26.20945 52.75989 24871 ft 500 kts 116°
2026-04-23 10:41 26.19595 52.79543 24871 ft 500 kts 116°
2026-04-23 10:41 26.18233 52.83113 24868 ft 500 kts 116°
2026-04-23 10:41 26.16876 52.86661 24866 ft 499 kts 116°
2026-04-23 10:42 26.15505 52.90231 24865 ft 499 kts 116°
2026-04-23 10:42 26.14137 52.93780 24863 ft 499 kts 116°
2026-04-23 10:42 26.12763 52.97341 24861 ft 500 kts 116°
2026-04-23 10:42 26.11377 53.00928 24863 ft 509 kts 116°
2026-04-23 10:43 26.09971 53.04565 24860 ft 512 kts 116°
2026-04-23 10:43 26.08571 53.08271 24856 ft 514 kts 115°
2026-04-23 10:43 26.07217 53.11951 24855 ft 514 kts 115°
2026-04-23 10:43 26.05880 53.15647 24855 ft 514 kts 115°
2026-04-23 10:44 26.04552 53.19338 24856 ft 514 kts 115°
2026-04-23 10:44 26.03215 53.23030 24857 ft 514 kts 115°
2026-04-23 10:44 26.01873 53.26709 24856 ft 514 kts 115°
2026-04-23 10:44 26.00517 53.30392 24854 ft 514 kts 115°
2026-04-23 10:45 25.99157 53.34061 24857 ft 514 kts 115°
2026-04-23 10:45 25.97791 53.37738 24855 ft 514 kts 115°
2026-04-23 10:45 25.96430 53.41408 24855 ft 514 kts 115°
2026-04-23 10:45 25.95065 53.45081 24856 ft 513 kts 115°
2026-04-23 10:46 25.93685 53.48789 24855 ft 513 kts 115°
2026-04-23 10:46 25.92337 53.52461 24857 ft 513 kts 114°
2026-04-23 10:46 25.91435 53.55005 24861 ft 513 kts 114°
2026-04-23 10:46 25.89754 53.59908 24861 ft 513 kts 113°
2026-04-23 10:47 25.88488 53.63673 24856 ft 513 kts 113°
2026-04-23 10:47 25.87240 53.67385 24860 ft 513 kts 113°
2026-04-23 10:47 25.86001 53.71037 24861 ft 512 kts 113°
2026-04-23 10:47 25.84715 53.74780 24860 ft 512 kts 114°
2026-04-23 10:48 25.83434 53.78467 24859 ft 512 kts 114°
2026-04-23 10:48 25.82148 53.82150 24861 ft 512 kts 114°
2026-04-23 10:48 25.80842 53.85881 24853 ft 511 kts 114°
2026-04-23 10:48 25.79558 53.89555 24853 ft 511 kts 114°
2026-04-23 10:49 25.78274 53.93237 24819 ft 510 kts 114°
2026-04-23 10:49 25.77005 53.96875 24428 ft 498 kts 114°
2026-04-23 10:49 25.75765 54.00434 23870 ft 494 kts 114°
2026-04-23 10:49 25.74569 54.03982 23297 ft 489 kts 112°
2026-04-23 10:50 25.73437 54.07571 22628 ft 484 kts 111°
2026-04-23 10:50 25.72376 54.11106 21982 ft 480 kts 111°
2026-04-23 10:50 25.71347 54.14605 21350 ft 475 kts 110°
2026-04-23 10:50 25.70323 54.18069 20738 ft 471 kts 110°
2026-04-23 10:51 25.69291 54.21500 20132 ft 467 kts 111°
2026-04-23 10:51 25.68255 54.24891 19542 ft 462 kts 111°
2026-04-23 10:51 25.67217 54.28247 18964 ft 458 kts 111°
2026-04-23 10:51 25.66182 54.31575 18387 ft 454 kts 111°
2026-04-23 10:52 25.65154 54.34866 17792 ft 450 kts 111°
2026-04-23 10:52 25.64127 54.38181 17149 ft 446 kts 110°
2026-04-23 10:52 25.63146 54.41421 16547 ft 441 kts 110°
2026-04-23 10:52 25.62181 54.44628 15937 ft 438 kts 110°
2026-04-23 10:53 25.61237 54.47779 15338 ft 435 kts 110°
2026-04-23 10:53 25.60294 54.50944 14739 ft 432 kts 110°
2026-04-23 10:53 25.59349 54.54135 14150 ft 428 kts 109°
2026-04-23 10:53 25.58803 54.57342 13569 ft 429 kts 94°
2026-04-23 10:54 25.58867 54.59551 13140 ft 428 kts 86°
2026-04-23 10:54 25.59145 54.62814 12515 ft 423 kts 86°
2026-04-23 10:54 25.59434 54.66045 11899 ft 419 kts 86°
2026-04-23 10:54 25.59725 54.69236 11293 ft 414 kts 86°
2026-04-23 10:55 25.60016 54.72428 10687 ft 408 kts 86°
2026-04-23 10:55 25.60298 54.75543 10093 ft 396 kts 86°
2026-04-23 10:55 25.60562 54.78479 9513 ft 377 kts 86°
2026-04-23 10:55 25.60813 54.81316 8886 ft 361 kts 86°
2026-04-23 10:56 25.61053 54.84072 8291 ft 347 kts 88°
2026-04-23 10:56 25.60913 54.86662 8060 ft 334 kts 105°
2026-04-23 10:56 25.60182 54.89070 8008 ft 329 kts 117°
2026-04-23 10:56 25.59262 54.91411 8017 ft 331 kts 117°
2026-04-23 10:57 25.58342 54.93776 8009 ft 323 kts 117°
2026-04-23 10:57 25.57479 54.96015 8020 ft 314 kts 117°
2026-04-23 10:57 25.56635 54.98202 8019 ft 301 kts 117°
2026-04-23 10:57 25.55797 55.00361 8017 ft 296 kts 117°
2026-04-23 10:58 25.55000 55.02411 8016 ft 287 kts 117°
2026-04-23 10:58 25.54119 55.04362 8025 ft 280 kts 124°
2026-04-23 10:58 25.53146 55.06226 8017 ft 278 kts 124°
2026-04-23 11:00 25.50623 55.11087 8021 ft 277 kts 124°
2026-04-23 11:00 25.49758 55.12744 8031 ft 309 kts 124°
2026-04-23 11:00 25.48652 55.14850 8008 ft 312 kts 123°
2026-04-23 11:00 25.47605 55.16876 8011 ft 296 kts 123°
2026-04-23 11:01 25.46612 55.18809 8015 ft 282 kts 123°
2026-04-23 11:01 25.45506 55.20562 8013 ft 274 kts 137°
2026-04-23 11:01 25.44199 55.22127 8016 ft 273 kts 136°
2026-04-23 11:01 25.42926 55.23685 8010 ft 273 kts 136°
2026-04-23 11:02 25.41658 55.25251 8015 ft 273 kts 136°
2026-04-23 11:02 25.40390 55.26816 8014 ft 273 kts 136°
2026-04-23 11:02 25.39122 55.28381 8016 ft 273 kts 136°
2026-04-23 11:02 25.37859 55.29938 8012 ft 272 kts 136°
2026-04-23 11:03 25.36594 55.31499 8009 ft 266 kts 136°
2026-04-23 11:03 25.35242 55.32891 7561 ft 266 kts 151°
2026-04-23 11:03 25.33633 55.33864 6975 ft 268 kts 156°
2026-04-23 11:03 25.31995 55.34813 6510 ft 264 kts 155°
2026-04-23 11:04 25.30376 55.35756 6101 ft 258 kts 156°
2026-04-23 11:04 25.28845 55.36653 6005 ft 240 kts 155°
2026-04-23 11:04 25.27380 55.37512 6009 ft 238 kts 156°
2026-04-23 11:04 25.25900 55.38375 6008 ft 234 kts 156°
2026-04-23 11:05 25.24488 55.39200 6008 ft 229 kts 155°
2026-04-23 11:05 25.23070 55.40027 6007 ft 228 kts 155°
2026-04-23 11:05 25.21687 55.40834 5625 ft 232 kts 155°
2026-04-23 11:05 25.20208 55.41696 5139 ft 240 kts 155°
2026-04-23 11:06 25.17678 55.43173 4341 ft 251 kts 155°
2026-04-23 11:06 25.16132 55.44075 3859 ft 258 kts 154°
2026-04-23 11:06 25.14510 55.45028 3373 ft 261 kts 154°
2026-04-23 11:07 25.12931 55.45955 3057 ft 250 kts 153°
2026-04-23 11:07 25.11514 55.46911 2999 ft 228 kts 141°
2026-04-23 11:07 25.10486 55.48239 3009 ft 229 kts 122°
2026-04-23 11:07 25.09660 55.49731 3004 ft 228 kts 123°
2026-04-23 11:08 25.08825 55.51225 3007 ft 229 kts 123°
2026-04-23 11:08 25.07988 55.52723 3006 ft 231 kts 124°
2026-04-23 11:08 25.07147 55.54228 2999 ft 230 kts 123°
2026-04-23 11:08 25.06303 55.55736 2993 ft 231 kts 123°
2026-04-23 11:09 25.05453 55.57250 3000 ft 232 kts 123°
2026-04-23 11:09 25.04603 55.58764 3002 ft 234 kts 123°
2026-04-23 11:09 25.03810 55.60321 2996 ft 234 kts 110°
2026-04-23 11:09 25.03700 55.62064 2996 ft 224 kts 75°
2026-04-23 11:10 25.04434 55.63479 3003 ft 212 kts 42°
2026-04-23 11:10 25.05578 55.64468 2993 ft 206 kts 27°
2026-04-23 11:10 25.06944 55.64809 2998 ft 196 kts 347°
2026-04-23 11:10 25.08201 55.64405 3054 ft 190 kts 335°
2026-04-23 11:11 25.09432 55.63818 3001 ft 187 kts 332°
2026-04-23 11:11 25.10456 55.63007 3003 ft 184 kts 308°
2026-04-23 11:11 25.11151 55.61855 2987 ft 176 kts 299°
2026-04-23 11:11 25.11800 55.60688 2983 ft 175 kts 299°
2026-04-23 11:12 25.12416 55.59582 2989 ft 167 kts 298°
2026-04-23 11:12 25.13038 55.58463 2996 ft 174 kts 299°
2026-04-23 11:12 25.13673 55.57324 3000 ft 175 kts 298°
2026-04-23 11:12 25.14309 55.56181 3005 ft 175 kts 299°
2026-04-23 11:13 25.14948 55.55035 3001 ft 176 kts 300°
2026-04-23 11:13 25.15588 55.53886 2882 ft 175 kts 298°
2026-04-23 11:13 25.16229 55.52735 2699 ft 174 kts 300°
2026-04-23 11:13 25.16867 55.51587 2469 ft 173 kts 300°
2026-04-23 11:14 25.17483 55.50481 2266 ft 166 kts 301°
2026-04-23 11:14 25.18072 55.49423 2075 ft 158 kts 302°
2026-04-23 11:14 25.18630 55.48419 1878 ft 151 kts 303°
2026-04-23 11:14 25.19167 55.47453 1693 ft 146 kts 304°
2026-04-23 11:15 25.19700 55.46495 1517 ft 143 kts 304°
2026-04-23 11:15 25.20217 55.45565 1340 ft 143 kts 305°
2026-04-23 11:15 25.20735 55.44632 1146 ft 142 kts 304°
2026-04-23 11:15 25.21252 55.43704 964 ft 142 kts 305°
2026-04-23 11:16 25.21766 55.42779 798 ft 141 kts 306°
2026-04-23 11:16 25.22283 55.41843 773 ft 143 kts 305°
2026-04-23 11:16 25.22795 55.40908 432 ft 141 kts 303°
2026-04-23 11:16 25.23317 55.39956 175 ft 142 kts 304°
2026-04-23 11:17 25.23835 55.39028 49 ft 140 kts 305°
2026-04-23 11:17 25.24187 55.38396 31 ft 48 kts 306°
2026-04-23 11:17 25.24359 55.38102 31 ft 44 kts 302°
2026-04-23 11:17 25.24532 55.37836 29 ft 41 kts 309°
2026-04-23 11:18 25.24614 55.37535 27 ft 39 kts 271°
2026-04-23 11:18 25.24608 55.37450 28 ft 0 kts 274°
2026-04-23 11:21 25.24618 55.37392 25 ft 16 kts 273°
2026-04-23 11:21 25.24620 55.37302 23 ft 3 kts 271°
2026-04-23 11:21 25.24621 55.37291 23 ft 2 kts 272°
2026-04-23 11:21 25.24621 55.37285 23 ft 2 kts 272°
2026-04-23 11:22 25.24629 55.37252 23 ft 11 kts 295°
2026-04-23 11:22 25.24678 55.37164 23 ft 15 kts 302°
2026-04-23 11:22 25.24738 55.37062 23 ft 17 kts 302°
2026-04-23 11:22 25.24807 55.36943 23 ft 19 kts 300°
2026-04-23 11:23 25.24862 55.36798 23 ft 22 kts 282°
2026-04-23 11:23 25.24912 55.36631 24 ft 24 kts 300°
2026-04-23 11:23 25.25004 55.36469 23 ft 26 kts 303°
2026-04-23 11:23 25.25104 55.36298 23 ft 27 kts 297°
2026-04-23 11:24 25.25205 55.36109 23 ft 29 kts 301°
2026-04-23 11:24 25.25295 55.35948 21 ft 24 kts 302°
2026-04-23 11:24 25.25387 55.35785 23 ft 26 kts 301°
2026-04-23 11:24 25.25486 55.35609 23 ft 28 kts 302°
2026-04-23 11:25 25.25589 55.35427 21 ft 28 kts 302°
2026-04-23 11:25 25.25663 55.35294 23 ft 20 kts 301°
2026-04-23 11:25 25.25700 55.35229 21 ft 2 kts 302°
2026-04-23 11:25 25.25704 55.35221 24 ft 1 kts 302°
2026-04-23 11:26 25.25718 55.35197 21 ft 6 kts 302°
2026-04-23 11:26 25.25744 55.35150 23 ft 9 kts 301°
2026-04-23 11:26 25.25777 55.35091 23 ft 5 kts 301°
2026-04-23 11:26 25.25792 55.35047 21 ft 9 kts 275°
2026-04-23 11:27 25.25755 55.34978 21 ft 12 kts 238°
2026-04-23 11:27 25.25734 55.34884 23 ft 14 kts 259°
2026-04-23 11:27 25.25731 55.34867 21 ft 2 kts 260°
2026-04-23 11:27 25.25726 55.34830 23 ft 7 kts 260°
2026-04-23 11:28 25.25722 55.34804 21 ft 1 kts 260°
2026-04-23 11:28 25.25721 55.34801 21 ft 0 kts 260°